SCP
0 0 0 0 0 0 0 0 0 0 0 0 0 0 0 0 0 0 0 0 0 0 0 0 0 0 0 0 0 0 0 0 0 0 0 0 0 0 0 0 0 0 0
0 0 0 0 0 0 0 0 0 0 0 0 0 0 0 0 0 0 0 0 0 0 0 0 0 0 0 0 0 0 0 0 0 0 0 0 0 0 0 0 0 0 0
0 0 0 0 0 0 0 0 0 0 0 0 0 0 0 0 0 0 0 0 0 0 0 0 0 0 0 0 0 0 0 0 0 0 0 0 0 0 0 0 0 0 0
0 0 0 0 0 0 0 0 0 0 0 0 0 0 0 0 0 0 0 0 0 0 0 0 0 0 0 0 0 0 0 0 0 0 0 0 0 0 0 0 0 0 0
0 0 0 0 0 0 0 0 0 0 0 0 0 0 0 0 0 0 0 0 0 0 0 0 0 0 0 0 0 0 0 0 0 0 0 0 0 0 0 0 0 0 0
0 0 0 0 0 0 0 0 0 0 0 0 0 0 0 0 0 0 0 0 0 0 0 0 0 0 0 0 0 0 0 0 0 0 0 0 0 0 0 0 0 0 0
0 0 0 0 0 0 0 0 0 0 0 0 0 0 0 0 0 0 0 0 0 0 0 0 0 0 0 0 0 0 0 0 0 0 0 0 0 0 0 0 0 0 0
0 0 0 0 0 0 0 0 0 0 0 0 0 0 0 0 0 0 0 0 0 0 0 0 0 0 0 0 0 0 0 0 0 0 0 0 0 0 0 0 0 0 0
0 0 0 0 0 0 0 0 0 0 0 0 0 0 0 0 0 0 0 0 0 0 0 0 0 0 0 0 0 0 0 0 0 0 0 0 0 0 0 0 0 0 0
0 0 0 0 0 0 0 0 0 0 0 0 0 0 0 0 0 0 0 0 0 0 0 0 0 0 0 0 0 0 0 0 0 0 0 0 0 0 0 0 0 0 0
0 0 0 0 0 0 0 0 0 0 0 0 0 0 0 0 0 0 0 0 0 0 0 0 0 0 0 0 0 0 0 0 0 0 0 0 0 0 0 0 0 0 0
0 0 0 0 0 0 0 0 0 0 0 0 0 0 0 0 0 0 0 0 0 0 0 0 0 0 0 0 0 0 0 0 0 0 0 0 0 0 0 0 0 0 0
0 0 0 0 0 0 0 0 0 0 0 0 0 0 0 0 0 0 0 0 0 0 0 0 0 0 0 0 0 0 0 0 0 0 0 0 0 0 0 0 0 0 0
0 0 0 0 0 0 0 0 0 0 0 0 0 0 0 0 0 0 0 0 0 0 0 0 0 0 0 0 0 0 0 0 0 0 0 0 0 0 0 0 0 0 0
0 0 0 0 0 0 0 0 0 0 0 0 0 0 0 0 0 0 0 0 0 0 0 0 0 0 0 0 0 0 0 0 0 0 0 0 0 0 0 0 0 0 0
0 0 0 0 0 0 0 0 0 0 0 0 0 0 0 0 0 0 0 0 0 0 0 0 0 0 0 0 0 0 0 0 0 0 0 0 0 0 0 0 0 0 0
0 0 0 0 0 0 0 0 0 0 0 0 0 0 0 0 0 0 0 0 0 0 0 0 0 0 0 0 0 0 0 0 0 0 0 0 0 0 0 0 0 0 0
0 0 0 0 0 0 0 0 0 0 0 0 0 0 0 0 0 0 0 0 0 0 0 0 0 0 0 0 0 0 0 0 0 0 0 0 0 0 0 0 0 0 0
0 0 0 0 0 0 0 0 0 0 0 0 0 0 0 0 0 0 0 0 0 0 0 0 0 0 0 0 0 0 0 0 0 0 0 0 0 0 0 0 0 0 0
0 0 0 0 0 0 0 0 0 0 0 0 0 0 0 0 0 0 0 0 0 0 0 0 0 0 0 0 0 0 0 0 0 0 0 0 0 0 0 0 0 0 0
0 0 0 0 0 0 0 0 0 0 0 0 0 0 0 0 0 0 0 0 0 0 0 0 0 0 0 0 0 0 0 0 0 0 0 0 0 0 0 0 0 0 0
0 0 0 0 0 0 0 0 0 0 0 0 0 0 0 0 0 0 0 0 0 0 0 0 0 0 0 0 0 0 0 0 0 0 0 0 0 0 0 0 0 0 0
0 0 0 0 0 0 0 0 0 0 0 0 0 0 0 0 0 0 0 0 0 0 0 0 0 0 0 0 0 0 0 0 0 0 0 0 0 0 0 0 0 0 0
0 0 0 0 0 0 0 0 0 0 0 0 0 0 0 0 0 0 0 0 0 0 0 0 0 0 0 0 0 0 0 0 0 0 0 0 0 0 0 0 0 0 0
0 0 0 0 0 0 0 0 0 0 0 0 0 0 0 0 0 0 0 0 0 0 0 0 0 0 0 0 0 0 0 0 0 0 0 0 0 0 0 0 0 0 0
0 0 0 0 0 0 0 0 0 0 0 0 0 0 0 0 0 0 0 0 0 0 0 0 0 0 0 0 0 0 0 0 0 0 0 0 0 0 0 0 0 0 0
Wind_Speed
7 7 6 6 7 6 6 7 7 8 9 9 9 9 10 10 10 9 6 12 15 17 18 18 18 18 17 17 16 16 15 15 14 14 13 12 11 11 10 9 9 8 7
8 7 8 7 8 7 8 8 9 9 8 8 10 11 11 12 11 11 10 10 16 19 20 21 21 21 20 20 19 19 18 18 18 17 16 15 15 14 13 12 12 11 10
10 9 8 8 8 9 10 9 10 9 9 9 12 13 12 12 12 13 12 10 10 16 21 23 23 23 23 23 22 22 21 21 20 20 19 18 18 17 16 15 14 14 13
12 10 9 9 9 8 8 9 9 9 10 10 11 10 10 10 14 14 13 12 11 10 15 23 25 26 26 26 25 25 24 23 23 22 22 21 20 20 19 18 17 16 15
12 11 9 10 10 8 8 9 9 10 11 11 11 11 11 11 12 13 15 15 14 14 12 16 24 27 28 28 28 28 27 26 25 25 25 24 23 22 21 21 20 19 18
11 11 9 11 10 8 9 10 11 11 10 10 11 12 12 13 13 13 15 14 14 16 16 16 14 17 27 30 31 30 30 29 28 27 27 26 26 25 24 23 22 21 20
11 10 9 11 10 9 11 12 11 12 11 9 9 11 13 15 16 14 13 13 15 16 16 16 14 13 12 24 30 32 32 32 31 30 29 29 28 27 26 25 24 23 23
11 9 11 10 10 9 12 12 12 9 9 8 7 8 9 10 11 12 12 12 14 12 14 16 16 15 13 11 15 27 31 33 33 32 32 31 30 29 29 28 27 26 25
9 10 11 11 10 10 10 12 11 13 10 9 9 8 8 8 7 5 10 10 12 11 12 12 15 16 16 13 13 20 27 31 33 34 33 33 32 32 31 30 29 28 27
7 9 10 11 11 10 11 11 11 10 12 10 9 10 12 10 9 9 7 9 12 13 14 12 13 15 16 14 15 21 24 27 30 33 34 34 34 33 33 32 31 30 28
5 7 8 9 9 9 11 12 11 12 11 12 11 10 12 12 14 12 14 13 13 12 13 14 13 13 15 16 14 19 26 28 29 31 32 34 34 34 34 33 32 31 30
4 5 6 8 9 9 10 11 11 13 12 14 12 11 12 11 10 12 15 15 14 13 14 12 13 13 14 15 18 23 26 28 29 30 31 32 34 34 35 34 33 32 32
4 5 6 7 8 9 10 10 11 13 14 15 14 13 12 13 13 13 15 16 17 14 15 13 13 13 13 14 15 23 26 29 30 30 31 31 32 33 34 34 34 33 32
6 7 8 8 10 10 10 11 10 12 12 14 16 16 13 13 13 13 14 14 16 16 16 18 13 14 13 13 15 19 19 27 29 30 30 31 31 32 33 33 33 33 32
6 9 9 10 11 11 12 12 11 13 13 14 15 16 14 13 13 13 13 14 14 17 19 18 15 14 12 12 15 15 17 22 26 28 29 30 31 31 32 33 33 32 31
9 10 11 11 12 12 13 13 12 13 14 14 13 16 16 13 13 13 13 14 14 16 19 16 14 13 12 11 16 17 17 23 26 27 28 29 30 31 31 32 32 32 32
10 11 12 12 13 13 14 13 14 15 16 16 16 17 18 18 14 13 13 14 14 14 18 20 16 15 17 17 15 15 15 16 15 24 26 28 28 29 30 31 32 33 32
11 12 12 13 14 14 14 15 16 16 16 17 17 17 18 15 18 15 14 16 15 15 17 22 19 15 17 16 16 16 14 13 14 20 24 25 27 28 29 30 31 31 31
12 13 13 14 14 15 15 16 16 17 17 18 18 18 18 17 18 15 16 15 14 14 14 17 19 15 13 12 14 14 16 15 15 16 21 24 26 28 28 29 29 30 30
13 14 14 15 15 15 15 15 15 16 17 17 17 17 18 18 18 18 15 16 15 15 15 15 16 14 13 12 11 12 13 13 13 13 16 17 21 25 27 28 28 28 28
14 14 15 15 15 13 11 11 13 16 18 18 17 17 18 21 23 20 16 14 14 13 13 14 15 14 13 11 11 11 13 12 13 11 11 11 12 12 15 22 26 27 27
14 15 15 16 16 13 18 23 21 18 17 18 18 17 18 19 22 26 29 28 24 17 15 15 14 15 15 14 12 11 12 11 11 9 11 11 10 11 11 11 18 23 25
15 16 16 16 17 17 22 24 24 19 18 17 17 16 14 14 20 16 20 25 25 28 27 18 17 17 16 14 13 14 14 13 14 9 7 10 9 11 10 12 20 22 24
15 15 16 17 18 18 22 24 24 19 17 17 17 17 17 17 15 17 14 15 16 17 19 16 14 15 15 14 12 13 13 13 13 10 9 9 9 10 9 10 17 22 24
15 15 16 17 18 19 21 22 23 15 14 16 16 16 17 17 21 24 18 16 16 14 19 25 26 23 25 25 19 10 10 10 11 10 10 8 8 9 9 9 12 19 22
15 16 16 16 18 18 20 22 23 12 13 13 14 14 19 20 23 25 17 15 16 15 13 12 15 18 17 17 21 13 9 10 9 8 9 9 8 7 6 8 9 9 13
Wind_Direction
219 220 227 227 231 234 233 239 244 248 249 252 251 254 256 255 253 251 250 245 251 255 259 261 262 261 257 252 249 247 247 246 247 247 246 246 247 247 248 251 255 259 262
226 227 234 235 238 239 243 247 250 254 254 253 256 255 256 257 253 251 250 248 245 249 252 255 257 259 259 257 252 247 244 243 244 244 244 244 244 244 245 247 249 252 255
232 234 240 241 242 243 245 248 255 258 260 260 259 258 257 255 254 252 250 249 246 243 246 250 253 255 257 258 256 252 247 243 242 242 242 242 242 242 243 244 245 247 249
236 239 243 246 248 247 246 247 252 253 255 257 260 260 256 254 255 254 251 246 245 245 242 243 246 249 252 253 254 253 251 246 243 241 240 240 240 240 240 241 242 243 245
239 241 246 251 252 247 247 250 252 254 260 262 263 264 262 259 256 254 251 248 244 243 244 244 243 245 247 249 250 250 250 248 245 241 240 239 238 238 239 240 240 241 242
241 244 249 253 254 248 248 249 253 256 259 269 274 272 267 262 256 252 253 251 246 242 241 244 244 244 244 245 247 247 248 248 246 244 241 238 237 237 237 238 238 239 240
244 242 248 253 249 247 251 255 256 259 260 262 271 273 263 254 249 247 246 247 246 243 241 241 241 242 244 243 244 245 245 246 245 244 242 239 237 236 236 236 236 237 238
249 246 247 251 251 250 254 256 255 256 258 248 252 280 284 274 245 234 241 243 246 246 243 241 240 239 241 243 243 244 245 245 245 244 243 240 238 236 235 235 235 235 236
255 251 252 255 255 253 255 255 252 248 252 252 234 246 271 278 306 248 233 241 244 244 244 242 240 238 237 237 242 242 243 245 246 245 244 242 240 238 236 235 234 234 235
263 258 256 257 257 254 255 255 252 250 250 254 250 235 244 266 279 287 256 242 247 251 254 250 246 243 239 238 236 238 240 243 245 246 246 244 242 240 237 235 233 233 233
272 265 262 260 258 256 257 258 256 251 245 246 249 248 245 247 247 256 272 272 264 253 249 251 252 249 245 240 238 238 239 241 243 245 246 246 244 242 240 237 234 233 232
287 274 268 263 261 259 259 258 257 254 250 249 248 247 248 246 245 248 261 268 269 266 261 251 247 249 250 248 245 243 242 243 244 245 246 246 245 244 242 240 237 234 233
301 298 282 272 267 262 262 262 260 258 254 252 250 249 247 248 251 256 264 272 274 273 269 262 252 248 248 248 250 246 246 247 247 247 246 246 246 245 244 242 240 237 235
302 303 293 281 276 272 268 263 262 259 258 256 254 253 252 251 250 249 255 267 275 275 267 262 253 246 246 248 249 246 251 250 249 248 247 245 245 244 244 243 242 240 239
298 296 292 286 282 277 273 271 265 265 263 260 259 258 255 254 253 252 252 251 259 273 274 273 268 258 247 246 249 250 251 252 251 250 249 246 244 243 242 241 241 240 240
297 294 293 290 286 283 278 274 272 270 269 266 264 262 261 259 257 254 252 252 249 256 270 272 271 270 264 253 253 254 255 257 254 253 252 250 247 244 243 241 240 239 238
298 295 294 292 289 287 284 280 275 275 273 272 268 265 264 263 263 260 257 254 251 250 260 270 270 269 266 260 255 254 256 257 256 252 252 251 250 247 244 242 241 239 237
297 295 294 290 288 286 284 282 280 278 275 274 273 271 270 269 266 264 261 258 256 252 255 267 272 271 267 264 260 257 256 256 257 256 253 253 252 250 247 244 242 240 238
297 295 292 290 288 286 285 283 282 281 279 277 276 274 273 272 270 267 265 263 261 259 256 261 269 271 269 264 261 257 256 256 258 258 256 253 252 251 249 247 243 240 238
296 295 293 290 288 285 282 281 282 281 279 276 274 272 271 269 267 267 266 265 264 262 260 260 265 267 265 260 254 253 253 249 251 252 253 251 251 251 250 248 245 243 240
294 292 291 289 287 284 277 274 274 277 278 277 274 271 269 267 266 266 264 261 257 257 257 257 260 262 258 252 246 244 249 252 251 246 248 246 247 245 243 245 245 243 241
295 293 291 290 289 285 285 287 287 285 283 281 281 278 275 273 272 272 272 270 266 260 256 255 257 256 256 251 247 242 243 246 250 234 236 241 234 240 239 237 238 240 241
297 296 293 292 290 289 290 291 291 290 286 284 283 282 279 276 277 272 273 274 275 274 270 266 263 261 261 255 249 244 238 238 243 238 230 242 233 237 236 237 239 237 238
298 296 295 295 294 292 294 295 296 293 286 283 282 281 281 281 278 277 272 269 266 266 266 268 263 265 265 262 251 246 245 245 248 240 222 239 236 236 235 233 237 238 239
298 297 297 296 294 294 296 297 297 293 286 284 283 282 282 281 281 282 280 274 272 268 267 265 262 262 261 259 251 240 233 234 240 232 213 224 236 237 236 234 232 233 236
297 298 294 294 294 294 296 297 297 291 289 288 286 283 282 281 282 283 281 279 278 277 272 270 266 265 265 266 264 247 231 233 235 233 207 207 222 220 235 231 227 224 229